Time,TemperatureF,DewpointF,PressureIn,WindDirection,WindDirectionDegrees,WindSpeedMPH,WindSpeedGustMPH,Humidity,HourlyPrecipIn,Conditions,Clouds,dailyrainin,SoftwareType,DateUTC
2013-03-09 00:00:00,41.7,22.0,30.21,North,0,2.7,2.7,45,0.00,,CLR,0.00,VWS V14.01,2013-03-09 05:00:00,
2013-03-09 00:01:00,41.7,22.0,30.21,North,0,3.1,3.1,45,0.00,,CLR,0.00,VWS V14.01,2013-03-09 05:01:00,
2013-03-09 00:06:00,41.5,21.8,30.21,NNE,22,0.0,0.0,45,0.00,,CLR,0.00,VWS V14.01,2013-03-09 05:06:00,
2013-03-09 00:11:00,41.4,21.6,30.21,NNE,22,2.5,2.5,45,0.00,,CLR,0.00,VWS V14.01,2013-03-09 05:11:00,
2013-03-09 00:16:00,41.4,21.6,30.21,North,0,3.1,3.1,45,0.00,,CLR,0.00,VWS V14.01,2013-03-09 05:16:00,
2013-03-09 00:21:00,41.0,21.3,30.21,North,0,3.1,3.1,45,0.00,,CLR,0.00,VWS V14.01,2013-03-09 05:21:00,
2013-03-09 00:26:00,41.4,21.6,30.21,NNE,22,4.5,4.5,45,0.00,,CLR,0.00,VWS V14.01,2013-03-09 05:26:00,
2013-03-09 00:31:00,41.4,21.6,30.21,NNE,22,4.9,4.9,45,0.00,,CLR,0.00,VWS V14.01,2013-03-09 05:31:00,
2013-03-09 00:36:00,41.5,21.8,30.21,North,0,2.9,2.9,45,0.00,,CLR,0.00,VWS V14.01,2013-03-09 05:36:00,
2013-03-09 00:41:00,41.4,21.6,30.21,NNE,22,4.0,4.0,45,0.00,,CLR,0.00,VWS V14.01,2013-03-09 05:41:00,
2013-03-09 00:46:00,41.2,21.5,30.21,NNE,22,3.6,3.6,45,0.00,,CLR,0.00,VWS V14.01,2013-03-09 05:46:00,
2013-03-09 00:51:00,40.8,21.1,30.21,NNE,22,4.0,4.0,45,0.00,,CLR,0.00,VWS V14.01,2013-03-09 05:51:00,
2013-03-09 00:56:00,40.6,21.0,30.21,NNE,22,6.3,6.3,45,0.00,,CLR,0.00,VWS V14.01,2013-03-09 05:56:00,
2013-03-09 01:01:00,40.6,21.0,30.21,NNE,22,4.3,4.3,45,0.00,,CLR,0.00,VWS V14.01,2013-03-09 06:01:00,
2013-03-09 01:06:00,40.6,21.0,30.18,NNE,22,3.1,3.1,45,0.00,,CLR,0.00,VWS V14.01,2013-03-09 06:06:00,
2013-03-09 01:11:00,40.5,20.8,30.18,NNE,22,3.6,3.6,45,0.00,,CLR,0.00,VWS V14.01,2013-03-09 06:11:00,
2013-03-09 01:16:00,40.3,20.6,30.18,NE,45,2.7,2.7,45,0.00,,CLR,0.00,VWS V14.01,2013-03-09 06:16:00,
2013-03-09 01:21:00,40.1,20.5,30.21,NNE,22,3.6,3.6,45,0.00,,CLR,0.00,VWS V14.01,2013-03-09 06:21:00,
2013-03-09 01:26:00,39.9,20.3,30.21,NNE,22,3.1,3.1,45,0.00,,CLR,0.00,VWS V14.01,2013-03-09 06:26:00,
2013-03-09 01:31:00,39.9,20.3,30.21,NE,45,6.0,6.0,45,0.00,,CLR,0.00,VWS V14.01,2013-03-09 06:31:00,
2013-03-09 01:36:00,39.7,20.1,30.18,NE,45,4.9,4.9,45,0.00,,CLR,0.00,VWS V14.01,2013-03-09 06:36:00,
2013-03-09 01:41:00,39.6,20.0,30.18,NNE,22,4.0,4.0,45,0.00,,CLR,0.00,VWS V14.01,2013-03-09 06:41:00,
2013-03-09 01:46:00,39.4,19.8,30.18,NNE,22,2.0,2.0,45,0.00,,CLR,0.00,VWS V14.01,2013-03-09 06:46:00,
2013-03-09 01:52:00,39.0,19.5,30.18,North,0,2.5,2.5,45,0.00,,CLR,0.00,VWS V14.01,2013-03-09 06:52:00,
2013-03-09 01:57:00,38.7,19.2,30.18,WNW,292,1.6,1.6,45,0.00,,CLR,0.00,VWS V14.01,2013-03-09 06:57:00,
2013-03-09 02:02:00,38.1,18.7,30.18,WNW,292,0.0,0.0,45,0.00,,CLR,0.00,VWS V14.01,2013-03-09 07:02:00,
2013-03-09 02:07:00,37.9,18.5,30.21,NNW,338,0.9,0.9,45,0.00,,CLR,0.00,VWS V14.01,2013-03-09 07:07:00,
2013-03-09 02:12:00,37.4,18.0,30.21,NNW,338,0.9,0.9,45,0.00,,CLR,0.00,VWS V14.01,2013-03-09 07:12:00,
2013-03-09 02:17:00,37.0,18.2,30.21,NNW,338,0.0,0.0,46,0.00,,CLR,0.00,VWS V14.01,2013-03-09 07:17:00,
2013-03-09 02:22:00,36.9,18.0,30.21,NNW,338,0.0,0.0,46,0.00,,CLR,0.00,VWS V14.01,2013-03-09 07:22:00,
2013-03-09 02:27:00,36.7,17.9,30.21,NW,315,0.0,0.0,46,0.00,,CLR,0.00,VWS V14.01,2013-03-09 07:27:00,
2013-03-09 02:32:00,36.7,17.9,30.21,NW,315,1.3,1.3,46,0.00,,CLR,0.00,VWS V14.01,2013-03-09 07:32:00,
2013-03-09 02:37:00,36.7,17.9,30.21,NNW,338,2.0,2.0,46,0.00,,CLR,0.00,VWS V14.01,2013-03-09 07:37:00,
2013-03-09 02:42:00,36.7,17.9,30.21,NNW,338,2.0,2.0,46,0.00,,CLR,0.00,VWS V14.01,2013-03-09 07:42:00,
2013-03-09 02:47:00,36.5,17.7,30.21,NNW,338,1.6,1.6,46,0.00,,CLR,0.00,VWS V14.01,2013-03-09 07:47:00,
2013-03-09 02:52:00,36.3,17.5,30.18,NNW,338,1.3,1.3,46,0.00,,CLR,0.00,VWS V14.01,2013-03-09 07:52:00,
2013-03-09 02:57:00,36.1,17.4,30.18,NNW,338,0.0,0.0,46,0.00,,CLR,0.00,VWS V14.01,2013-03-09 07:57:00,
2013-03-09 03:02:00,36.0,17.2,30.18,NNW,338,0.0,0.0,46,0.00,,CLR,0.00,VWS V14.01,2013-03-09 08:02:00,
2013-03-09 03:07:00,36.0,17.2,30.18,North,0,1.6,1.6,46,0.00,,CLR,0.00,VWS V14.01,2013-03-09 08:07:00,
2013-03-09 03:12:00,35.8,17.0,30.18,NNW,338,1.3,1.3,46,0.00,,CLR,0.00,VWS V14.01,2013-03-09 08:12:00,
2013-03-09 03:17:00,35.8,17.0,30.18,North,0,2.7,2.7,46,0.00,,CLR,0.00,VWS V14.01,2013-03-09 08:17:00,
2013-03-09 03:22:00,35.8,17.0,30.18,North,0,2.5,2.5,46,0.00,,CLR,0.00,VWS V14.01,2013-03-09 08:22:00,
2013-03-09 03:27:00,35.8,17.0,30.18,North,0,3.1,3.1,46,0.00,,CLR,0.00,VWS V14.01,2013-03-09 08:27:00,
2013-03-09 03:32:00,36.1,17.4,30.18,NNE,22,4.9,4.9,46,0.00,,CLR,0.00,VWS V14.01,2013-03-09 08:32:00,
2013-03-09 03:38:00,36.7,17.9,30.18,NNE,22,4.0,4.0,46,0.00,,CLR,0.00,VWS V14.01,2013-03-09 08:38:00,
2013-03-09 03:43:00,36.9,18.0,30.18,NNE,22,2.7,2.7,46,0.00,,CLR,0.00,VWS V14.01,2013-03-09 08:43:00,
2013-03-09 03:48:00,36.7,17.9,30.18,NNE,22,1.6,1.6,46,0.00,,CLR,0.00,VWS V14.01,2013-03-09 08:48:00,
2013-03-09 03:53:00,36.7,17.9,30.18,North,0,3.6,3.6,46,0.00,,CLR,0.00,VWS V14.01,2013-03-09 08:53:00,
2013-03-09 03:58:00,36.3,17.5,30.18,North,0,2.5,2.5,46,0.00,,CLR,0.00,VWS V14.01,2013-03-09 08:58:00,
2013-03-09 04:03:00,36.3,17.5,30.18,NNE,22,4.9,4.9,46,0.00,,CLR,0.00,VWS V14.01,2013-03-09 09:03:00,
2013-03-09 04:08:00,36.7,17.9,30.18,NNE,22,4.0,4.0,46,0.00,,CLR,0.00,VWS V14.01,2013-03-09 09:08:00,
2013-03-09 04:13:00,36.5,17.7,30.18,NNE,22,2.9,2.9,46,0.00,,CLR,0.00,VWS V14.01,2013-03-09 09:13:00,
2013-03-09 04:18:00,36.3,17.5,30.18,NNE,22,1.6,1.6,46,0.00,,CLR,0.00,VWS V14.01,2013-03-09 09:18:00,
2013-03-09 04:23:00,36.1,17.4,30.21,NNE,22,2.0,2.0,46,0.00,,CLR,0.00,VWS V14.01,2013-03-09 09:23:00,
2013-03-09 04:28:00,36.1,17.4,30.21,NNE,22,3.6,3.6,46,0.00,,CLR,0.00,VWS V14.01,2013-03-09 09:28:00,
2013-03-09 04:33:00,36.3,17.5,30.21,NNE,22,4.3,4.3,46,0.00,,CLR,0.00,VWS V14.01,2013-03-09 09:33:00,
2013-03-09 04:38:00,36.3,17.5,30.18,North,0,3.6,3.6,46,0.00,,CLR,0.00,VWS V14.01,2013-03-09 09:38:00,
2013-03-09 04:43:00,36.1,17.4,30.18,NNE,22,3.1,3.1,46,0.00,,CLR,0.00,VWS V14.01,2013-03-09 09:43:00,
2013-03-09 04:48:00,36.0,17.2,30.18,NE,45,4.0,4.0,46,0.00,,CLR,0.00,VWS V14.01,2013-03-09 09:48:00,
2013-03-09 04:53:00,36.0,17.2,30.18,NNE,22,5.6,5.6,46,0.00,,CLR,0.00,VWS V14.01,2013-03-09 09:53:00,
2013-03-09 04:58:00,36.0,17.2,30.18,NNE,22,4.3,4.3,46,0.00,,CLR,0.00,VWS V14.01,2013-03-09 09:58:00,
2013-03-09 05:03:00,36.1,17.4,30.18,NNE,22,3.4,3.4,46,0.00,,CLR,0.00,VWS V14.01,2013-03-09 10:03:00,
2013-03-09 05:08:00,36.1,17.4,30.21,North,0,4.0,4.0,46,0.00,,CLR,0.00,VWS V14.01,2013-03-09 10:08:00,
2013-03-09 05:13:00,36.0,17.2,30.21,NNE,22,4.7,4.7,46,0.00,,CLR,0.00,VWS V14.01,2013-03-09 10:13:00,
2013-03-09 05:18:00,35.8,17.0,30.21,NNE,22,4.0,4.0,46,0.00,,CLR,0.00,VWS V14.01,2013-03-09 10:18:00,
2013-03-09 05:24:00,35.8,17.0,30.18,NNE,22,3.6,3.6,46,0.00,,CLR,0.00,VWS V14.01,2013-03-09 10:24:00,
2013-03-09 05:29:00,35.6,16.9,30.18,NNE,22,3.8,3.8,46,0.00,,CLR,0.00,VWS V14.01,2013-03-09 10:29:00,
2013-03-09 05:34:00,35.4,16.7,30.18,NNE,22,3.6,3.6,46,0.00,,CLR,0.00,VWS V14.01,2013-03-09 10:34:00,
2013-03-09 05:39:00,35.1,16.4,30.18,NNE,22,2.9,2.9,46,0.00,,CLR,0.00,VWS V14.01,2013-03-09 10:39:00,
2013-03-09 05:44:00,34.9,16.2,30.18,North,0,1.6,1.6,46,0.00,,CLR,0.00,VWS V14.01,2013-03-09 10:44:00,
2013-03-09 05:49:00,34.7,16.0,30.18,NNE,22,3.1,3.1,46,0.00,,CLR,0.00,VWS V14.01,2013-03-09 10:49:00,
2013-03-09 05:54:00,34.9,16.2,30.21,NNE,22,3.8,3.8,46,0.00,,CLR,0.00,VWS V14.01,2013-03-09 10:54:00,
2013-03-09 05:59:00,35.1,16.4,30.21,NNE,22,3.4,3.4,46,0.00,,CLR,0.00,VWS V14.01,2013-03-09 10:59:00,
2013-03-09 06:04:00,34.9,16.2,30.21,NNE,22,3.4,3.4,46,0.00,,CLR,0.00,VWS V14.01,2013-03-09 11:04:00,
2013-03-09 06:09:00,34.9,16.2,30.21,NNE,22,2.7,2.7,46,0.00,,CLR,0.00,VWS V14.01,2013-03-09 11:09:00,
2013-03-09 06:14:00,34.7,16.0,30.21,NNE,22,2.7,2.7,46,0.00,,CLR,0.00,VWS V14.01,2013-03-09 11:14:00,
2013-03-09 06:19:00,34.9,16.2,30.21,NNE,22,4.0,4.0,46,0.00,,CLR,0.00,VWS V14.01,2013-03-09 11:19:00,
2013-03-09 06:24:00,34.9,16.2,30.21,NNE,22,3.1,3.1,46,0.00,,CLR,0.00,VWS V14.01,2013-03-09 11:24:00,
2013-03-09 06:29:00,34.9,16.2,30.21,NNE,22,2.7,2.7,46,0.00,,CLR,0.00,VWS V14.01,2013-03-09 11:29:00,
2013-03-09 06:34:00,34.7,16.0,30.21,NNE,22,4.7,4.7,46,0.00,,CLR,0.00,VWS V14.01,2013-03-09 11:34:00,
2013-03-09 06:39:00,34.7,16.0,30.21,NNE,22,4.9,4.9,46,0.00,,CLR,0.00,VWS V14.01,2013-03-09 11:39:00,
2013-03-09 06:44:00,34.7,16.0,30.21,NNE,22,3.1,3.1,46,0.00,,CLR,0.00,VWS V14.01,2013-03-09 11:44:00,
2013-03-09 06:49:00,34.7,16.0,30.21,NNE,22,4.0,4.0,46,0.00,,CLR,0.00,VWS V14.01,2013-03-09 11:49:00,
2013-03-09 06:55:00,34.7,16.0,30.21,NNE,22,2.9,2.9,46,0.00,,CLR,0.00,VWS V14.01,2013-03-09 11:55:00,
2013-03-09 07:00:00,34.9,16.2,30.21,NNE,22,2.7,2.7,46,0.00,,CLR,0.00,VWS V14.01,2013-03-09 12:00:00,
2013-03-09 07:05:00,34.9,16.2,30.21,North,0,2.7,2.7,46,0.00,,CLR,0.00,VWS V14.01,2013-03-09 12:05:00,
2013-03-09 07:10:00,35.1,16.4,30.21,North,0,3.1,3.1,46,0.00,,CLR,0.00,VWS V14.01,2013-03-09 12:10:00,
2013-03-09 07:15:00,35.1,16.4,30.21,NNE,22,3.1,3.1,46,0.00,,CLR,0.00,VWS V14.01,2013-03-09 12:15:00,
2013-03-09 07:20:00,35.6,16.9,30.18,NNE,22,3.1,3.1,46,0.00,,CLR,0.00,VWS V14.01,2013-03-09 12:20:00,
2013-03-09 07:25:00,36.0,17.2,30.18,NE,45,4.9,4.9,46,0.00,,CLR,0.00,VWS V14.01,2013-03-09 12:25:00,
2013-03-09 07:30:00,36.3,17.5,30.18,NNE,22,2.5,2.5,46,0.00,,CLR,0.00,VWS V14.01,2013-03-09 12:30:00,
2013-03-09 07:35:00,36.7,17.9,30.21,NNE,22,4.7,4.7,46,0.00,,CLR,0.00,VWS V14.01,2013-03-09 12:35:00,
2013-03-09 07:40:00,37.0,18.2,30.21,NNE,22,2.7,2.7,46,0.00,,CLR,0.00,VWS V14.01,2013-03-09 12:40:00,
2013-03-09 07:45:00,37.6,18.2,30.21,North,0,4.0,4.0,45,0.00,,CLR,0.00,VWS V14.01,2013-03-09 12:45:00,
2013-03-09 07:50:00,37.9,18.5,30.24,WNW,292,3.8,3.8,45,0.00,,CLR,0.00,VWS V14.01,2013-03-09 12:50:00,
2013-03-09 07:55:00,38.5,19.0,30.24,NNE,22,3.8,3.8,45,0.00,,CLR,0.00,VWS V14.01,2013-03-09 12:55:00,
2013-03-09 08:00:00,38.8,19.3,30.24,NNE,22,6.3,6.3,45,0.00,,CLR,0.00,VWS V14.01,2013-03-09 13:00:00,
2013-03-09 08:05:00,39.4,19.8,30.24,NNE,22,6.5,6.5,45,0.00,,CLR,0.00,VWS V14.01,2013-03-09 13:05:00,
2013-03-09 08:10:00,39.9,20.3,30.24,NE,45,7.2,7.2,45,0.00,,CLR,0.00,VWS V14.01,2013-03-09 13:10:00,
2013-03-09 08:15:00,40.6,21.0,30.24,NNE,22,4.0,4.0,45,0.00,,CLR,0.00,VWS V14.01,2013-03-09 13:15:00,
2013-03-09 08:20:00,41.2,21.5,30.24,North,0,6.0,6.0,45,0.00,,CLR,0.00,VWS V14.01,2013-03-09 13:20:00,
2013-03-09 08:25:00,41.9,22.1,30.24,ENE,68,5.6,5.6,45,0.00,,CLR,0.00,VWS V14.01,2013-03-09 13:25:00,
2013-03-09 08:30:00,42.4,22.6,30.24,NE,45,8.1,8.1,45,0.00,,CLR,0.00,VWS V14.01,2013-03-09 13:30:00,
2013-03-09 08:36:00,42.8,22.4,30.27,NE,45,7.6,7.6,44,0.00,,CLR,0.00,VWS V14.01,2013-03-09 13:36:00,
2013-03-09 08:41:00,43.2,22.7,30.27,NE,45,6.0,6.0,44,0.00,,CLR,0.00,VWS V14.01,2013-03-09 13:41:00,
2013-03-09 08:46:00,43.7,23.2,30.27,NNE,22,4.9,4.9,44,0.00,,CLR,0.00,VWS V14.01,2013-03-09 13:46:00,
2013-03-09 08:51:00,44.2,23.7,30.27,NNE,22,4.9,4.9,44,0.00,,CLR,0.00,VWS V14.01,2013-03-09 13:51:00,
2013-03-09 08:56:00,44.8,24.2,30.27,NNE,22,8.7,8.7,44,0.00,,CLR,0.00,VWS V14.01,2013-03-09 13:56:00,
2013-03-09 09:01:00,45.3,24.7,30.27,NE,45,10.7,10.7,44,0.00,,CLR,0.00,VWS V14.01,2013-03-09 14:01:00,
2013-03-09 09:06:00,45.9,25.2,30.27,NE,45,7.6,7.6,44,0.00,,CLR,0.00,VWS V14.01,2013-03-09 14:06:00,
2013-03-09 09:11:00,46.2,25.5,30.27,NNE,22,7.4,7.4,44,0.00,,CLR,0.00,VWS V14.01,2013-03-09 14:11:00,
2013-03-09 09:16:00,46.6,25.3,30.27,ENE,68,7.8,7.8,43,0.00,,CLR,0.00,VWS V14.01,2013-03-09 14:16:00,
2013-03-09 09:21:00,46.8,25.5,30.27,ENE,68,6.0,6.0,43,0.00,,CLR,0.00,VWS V14.01,2013-03-09 14:21:00,
2013-03-09 09:26:00,47.1,25.8,30.27,NNE,22,6.0,6.0,43,0.00,,CLR,0.00,VWS V14.01,2013-03-09 14:26:00,
2013-03-09 09:31:00,47.3,26.0,30.27,NNE,22,6.0,6.0,43,0.00,,CLR,0.00,VWS V14.01,2013-03-09 14:31:00,
2013-03-09 09:36:00,47.7,26.3,30.27,NNE,22,4.9,4.9,43,0.00,,CLR,0.00,VWS V14.01,2013-03-09 14:36:00,
2013-03-09 09:41:00,47.8,26.4,30.27,NE,45,7.6,7.6,43,0.00,,CLR,0.00,VWS V14.01,2013-03-09 14:41:00,
2013-03-09 09:46:00,48.0,26.6,30.27,NNE,22,4.0,4.0,43,0.00,,CLR,0.00,VWS V14.01,2013-03-09 14:46:00,
2013-03-09 09:51:00,48.2,26.8,30.27,NNE,22,5.8,5.8,43,0.00,,CLR,0.00,VWS V14.01,2013-03-09 14:51:00,
2013-03-09 09:56:00,48.4,26.9,30.27,NNE,22,4.3,4.3,43,0.00,,CLR,0.00,VWS V14.01,2013-03-09 14:56:00,
2013-03-09 10:01:00,48.7,27.3,30.27,ENE,68,8.5,8.5,43,0.00,,CLR,0.00,VWS V14.01,2013-03-09 15:01:00,
2013-03-09 10:06:00,49.3,27.8,30.27,ENE,68,6.3,6.3,43,0.00,,CLR,0.00,VWS V14.01,2013-03-09 15:06:00,
2013-03-09 10:11:00,49.5,27.9,30.27,NNE,22,7.4,7.4,43,0.00,,CLR,0.00,VWS V14.01,2013-03-09 15:11:00,
2013-03-09 10:16:00,49.5,27.9,30.27,NNE,22,7.6,7.6,43,0.00,,CLR,0.00,VWS V14.01,2013-03-09 15:16:00,
2013-03-09 10:21:00,49.5,27.9,30.27,NNE,22,5.6,5.6,43,0.00,,CLR,0.00,VWS V14.01,2013-03-09 15:21:00,
2013-03-09 10:26:00,50.0,28.4,30.27,ESE,112,4.9,4.9,43,0.00,,CLR,0.00,VWS V14.01,2013-03-09 15:26:00,
2013-03-09 10:31:00,50.0,28.4,30.27,ENE,68,9.0,9.0,43,0.00,,CLR,0.00,VWS V14.01,2013-03-09 15:31:00,
2013-03-09 10:36:00,50.2,28.6,30.27,ENE,68,8.5,8.5,43,0.00,,CLR,0.00,VWS V14.01,2013-03-09 15:36:00,
2013-03-09 10:42:00,50.5,28.9,30.27,NE,45,8.5,8.5,43,0.00,,CLR,0.00,VWS V14.01,2013-03-09 15:42:00,
2013-03-09 10:47:00,50.7,29.1,30.27,East,90,3.1,3.1,43,0.00,,CLR,0.00,VWS V14.01,2013-03-09 15:47:00,
2013-03-09 10:52:00,51.1,29.4,30.27,NE,45,2.0,2.0,43,0.00,,CLR,0.00,VWS V14.01,2013-03-09 15:52:00,
2013-03-09 10:57:00,50.9,29.2,30.27,SSE,158,5.6,5.6,43,0.00,,CLR,0.00,VWS V14.01,2013-03-09 15:57:00,
2013-03-09 11:02:00,51.6,29.9,30.27,ENE,68,5.6,5.6,43,0.00,,CLR,0.00,VWS V14.01,2013-03-09 16:02:00,
2013-03-09 11:07:00,51.6,29.9,30.27,NNE,22,5.4,5.4,43,0.00,,CLR,0.00,VWS V14.01,2013-03-09 16:07:00,
2013-03-09 11:12:00,52.0,29.6,30.27,ENE,68,5.6,5.6,42,0.00,,CLR,0.00,VWS V14.01,2013-03-09 16:12:00,
2013-03-09 11:17:00,52.2,29.8,30.27,ENE,68,3.8,3.8,42,0.00,,CLR,0.00,VWS V14.01,2013-03-09 16:17:00,
2013-03-09 11:22:00,52.5,30.1,30.27,East,90,3.8,3.8,42,0.00,,CLR,0.00,VWS V14.01,2013-03-09 16:22:00,
2013-03-09 11:27:00,52.9,30.4,30.27,ENE,68,5.6,5.6,42,0.00,,CLR,0.00,VWS V14.01,2013-03-09 16:27:00,
2013-03-09 11:32:00,53.2,30.8,30.27,ENE,68,5.8,5.8,42,0.00,,CLR,0.00,VWS V14.01,2013-03-09 16:32:00,
2013-03-09 11:37:00,53.4,30.9,30.27,NNE,22,4.3,4.3,42,0.00,,CLR,0.00,VWS V14.01,2013-03-09 16:37:00,
2013-03-09 11:42:00,53.4,30.9,30.27,South,180,2.5,2.5,42,0.00,,CLR,0.00,VWS V14.01,2013-03-09 16:42:00,
2013-03-09 11:47:00,54.0,31.4,30.27,NE,45,8.5,8.5,42,0.00,,CLR,0.00,VWS V14.01,2013-03-09 16:47:00,
2013-03-09 11:52:00,54.0,31.4,30.24,East,90,7.2,7.2,42,0.00,,CLR,0.00,VWS V14.01,2013-03-09 16:52:00,
2013-03-09 11:57:00,54.1,31.6,30.24,NNE,22,2.7,2.7,42,0.00,,CLR,0.00,VWS V14.01,2013-03-09 16:57:00,
2013-03-09 12:02:00,54.5,31.9,30.24,East,90,3.6,3.6,42,0.00,,CLR,0.00,VWS V14.01,2013-03-09 17:02:00,
2013-03-09 12:07:00,54.5,31.9,30.24,NE,45,5.8,5.8,42,0.00,,CLR,0.00,VWS V14.01,2013-03-09 17:07:00,
2013-03-09 12:12:00,54.9,32.2,30.24,SSW,202,3.4,3.4,42,0.00,,CLR,0.00,VWS V14.01,2013-03-09 17:12:00,
2013-03-09 12:17:00,54.9,32.2,30.24,ESE,112,5.6,5.6,42,0.00,,CLR,0.00,VWS V14.01,2013-03-09 17:17:00,
2013-03-09 12:22:00,55.0,32.4,30.24,ENE,68,3.1,3.1,42,0.00,,CLR,0.00,VWS V14.01,2013-03-09 17:22:00,
2013-03-09 12:27:00,55.4,32.1,30.24,ESE,112,2.2,2.2,41,0.00,,CLR,0.00,VWS V14.01,2013-03-09 17:27:00,
2013-03-09 12:32:00,54.5,31.9,30.24,WSW,248,2.9,2.9,42,0.00,,CLR,0.00,VWS V14.01,2013-03-09 17:32:00,
2013-03-09 12:37:00,56.1,32.8,30.21,South,180,2.7,2.7,41,0.00,,CLR,0.00,VWS V14.01,2013-03-09 17:37:00,
2013-03-09 12:42:00,56.5,33.1,30.21,NE,45,6.5,6.5,41,0.00,,CLR,0.00,VWS V14.01,2013-03-09 17:42:00,
2013-03-09 12:47:00,56.3,32.9,30.21,ENE,68,6.5,6.5,41,0.00,,CLR,0.00,VWS V14.01,2013-03-09 17:47:00,
2013-03-09 12:52:00,55.8,32.4,30.21,ENE,68,6.5,6.5,41,0.00,,CLR,0.00,VWS V14.01,2013-03-09 17:52:00,
2013-03-09 12:57:00,56.5,33.1,30.21,ENE,68,6.5,6.5,41,0.00,,CLR,0.00,VWS V14.01,2013-03-09 17:57:00,
2013-03-09 13:03:00,56.7,33.2,30.21,ENE,68,6.5,6.5,41,0.00,,CLR,0.00,VWS V14.01,2013-03-09 18:03:00,
2013-03-09 13:08:00,56.7,33.2,30.21,South,180,0.9,0.9,41,0.00,,CLR,0.00,VWS V14.01,2013-03-09 18:08:00,
2013-03-09 13:13:00,57.2,33.7,30.21,ENE,68,3.1,3.1,41,0.00,,CLR,0.00,VWS V14.01,2013-03-09 18:13:00,
2013-03-09 13:18:00,57.7,34.2,30.21,South,180,2.0,2.0,41,0.00,,CLR,0.00,VWS V14.01,2013-03-09 18:18:00,
2013-03-09 13:23:00,57.9,34.4,30.21,NE,45,0.0,0.0,41,0.00,,CLR,0.00,VWS V14.01,2013-03-09 18:23:00,
2013-03-09 13:28:00,58.1,34.5,30.21,NNE,22,4.9,4.9,41,0.00,,CLR,0.00,VWS V14.01,2013-03-09 18:28:00,
2013-03-09 13:33:00,58.3,34.7,30.21,ENE,68,5.8,5.8,41,0.00,,CLR,0.00,VWS V14.01,2013-03-09 18:33:00,
2013-03-09 13:38:00,58.3,34.7,30.21,NE,45,4.0,4.0,41,0.00,,CLR,0.00,VWS V14.01,2013-03-09 18:38:00,
2013-03-09 13:43:00,58.5,34.9,30.21,NE,45,2.9,2.9,41,0.00,,CLR,0.00,VWS V14.01,2013-03-09 18:43:00,
2013-03-09 13:48:00,58.6,35.0,30.21,NE,45,0.0,0.0,41,0.00,,CLR,0.00,VWS V14.01,2013-03-09 18:48:00,
2013-03-09 13:53:00,57.9,34.4,30.18,WSW,248,2.5,2.5,41,0.00,,CLR,0.00,VWS V14.01,2013-03-09 18:53:00,
2013-03-09 13:58:00,57.9,34.4,30.18,SSW,202,4.5,4.5,41,0.00,,CLR,0.00,VWS V14.01,2013-03-09 18:58:00,
2013-03-09 14:03:00,59.0,35.3,30.18,SSW,202,1.3,1.3,41,0.00,,CLR,0.00,VWS V14.01,2013-03-09 19:03:00,
2013-03-09 14:08:00,59.2,35.5,30.21,East,90,2.7,2.7,41,0.00,,CLR,0.00,VWS V14.01,2013-03-09 19:08:00,
2013-03-09 14:13:00,58.8,35.2,30.21,WNW,292,3.6,3.6,41,0.00,,CLR,0.00,VWS V14.01,2013-03-09 19:13:00,
2013-03-09 14:18:00,59.4,35.7,30.21,ENE,68,0.9,0.9,41,0.00,,CLR,0.00,VWS V14.01,2013-03-09 19:18:00,
2013-03-09 14:23:00,59.4,35.7,30.18,West,270,0.0,0.0,41,0.00,,CLR,0.00,VWS V14.01,2013-03-09 19:23:00,
2013-03-09 14:28:00,59.7,36.0,30.18,West,270,0.0,0.0,41,0.00,,CLR,0.00,VWS V14.01,2013-03-09 19:28:00,
2013-03-09 14:33:00,60.4,36.7,30.18,ESE,112,1.6,1.6,41,0.00,,CLR,0.00,VWS V14.01,2013-03-09 19:33:00,
2013-03-09 14:38:00,60.6,36.8,30.18,ENE,68,5.4,5.4,41,0.00,,CLR,0.00,VWS V14.01,2013-03-09 19:38:00,
2013-03-09 14:43:00,60.4,36.7,30.18,ESE,112,3.6,3.6,41,0.00,,CLR,0.00,VWS V14.01,2013-03-09 19:43:00,
2013-03-09 14:48:00,60.4,36.7,30.18,North,0,2.5,2.5,41,0.00,,CLR,0.00,VWS V14.01,2013-03-09 19:48:00,
2013-03-09 14:53:00,60.8,36.3,30.18,NE,45,2.2,2.2,40,0.00,,CLR,0.00,VWS V14.01,2013-03-09 19:53:00,
2013-03-09 14:59:00,61.0,36.5,30.18,West,270,0.0,0.0,40,0.00,,CLR,0.00,VWS V14.01,2013-03-09 19:59:00,
2013-03-09 15:04:00,61.2,36.7,30.18,NNE,22,0.0,0.0,40,0.00,,CLR,0.00,VWS V14.01,2013-03-09 20:04:00,
2013-03-09 15:09:00,61.0,36.5,30.18,ENE,68,4.7,4.7,40,0.00,,CLR,0.00,VWS V14.01,2013-03-09 20:09:00,
2013-03-09 15:14:00,61.0,36.5,30.18,WNW,292,2.0,2.0,40,0.00,,CLR,0.00,VWS V14.01,2013-03-09 20:14:00,
2013-03-09 15:19:00,61.7,37.2,30.18,North,0,3.4,3.4,40,0.00,,CLR,0.00,VWS V14.01,2013-03-09 20:19:00,
2013-03-09 15:24:00,61.3,36.8,30.15,NNE,22,0.9,0.9,40,0.00,,CLR,0.00,VWS V14.01,2013-03-09 20:24:00,
2013-03-09 15:29:00,60.8,36.3,30.15,WSW,248,3.4,3.4,40,0.00,,CLR,0.00,VWS V14.01,2013-03-09 20:29:00,
2013-03-09 15:34:00,61.2,36.7,30.15,NNW,338,1.3,1.3,40,0.00,,CLR,0.00,VWS V14.01,2013-03-09 20:34:00,
2013-03-09 15:39:00,61.9,37.3,30.15,NE,45,3.1,3.1,40,0.00,,CLR,0.00,VWS V14.01,2013-03-09 20:39:00,
2013-03-09 15:44:00,62.1,37.5,30.15,WNW,292,2.7,2.7,40,0.00,,CLR,0.00,VWS V14.01,2013-03-09 20:44:00,
2013-03-09 15:49:00,62.4,37.8,30.15,North,0,2.7,2.7,40,0.00,,CLR,0.00,VWS V14.01,2013-03-09 20:49:00,
2013-03-09 15:54:00,62.2,37.6,30.15,North,0,0.0,0.0,40,0.00,,CLR,0.00,VWS V14.01,2013-03-09 20:54:00,
2013-03-09 15:59:00,62.6,38.0,30.15,ENE,68,3.6,3.6,40,0.00,,CLR,0.00,VWS V14.01,2013-03-09 20:59:00,
2013-03-09 16:04:00,62.1,37.5,30.15,North,0,1.1,1.1,40,0.00,,CLR,0.00,VWS V14.01,2013-03-09 21:04:00,
2013-03-09 16:09:00,61.9,37.3,30.15,ENE,68,0.9,0.9,40,0.00,,CLR,0.00,VWS V14.01,2013-03-09 21:09:00,
2013-03-09 16:14:00,61.7,37.2,30.15,SSE,158,2.9,2.9,40,0.00,,CLR,0.00,VWS V14.01,2013-03-09 21:14:00,
2013-03-09 16:19:00,61.9,37.3,30.15,SSE,158,2.5,2.5,40,0.00,,CLR,0.00,VWS V14.01,2013-03-09 21:19:00,
2013-03-09 16:24:00,61.7,37.2,30.15,SE,135,3.4,3.4,40,0.00,,CLR,0.00,VWS V14.01,2013-03-09 21:24:00,
2013-03-09 16:29:00,62.2,37.6,30.15,NNE,22,2.5,2.5,40,0.00,,CLR,0.00,VWS V14.01,2013-03-09 21:29:00,
2013-03-09 16:35:00,62.4,37.8,30.15,SSE,158,3.4,3.4,40,0.00,,CLR,0.00,VWS V14.01,2013-03-09 21:35:00,
2013-03-09 16:40:00,62.2,37.6,30.15,NNE,22,0.0,0.0,40,0.00,,CLR,0.00,VWS V14.01,2013-03-09 21:40:00,
2013-03-09 16:45:00,62.2,37.6,30.15,North,0,0.0,0.0,40,0.00,,CLR,0.00,VWS V14.01,2013-03-09 21:45:00,
2013-03-09 16:50:00,62.1,37.5,30.15,North,0,1.6,1.6,40,0.00,,CLR,0.00,VWS V14.01,2013-03-09 21:50:00,
2013-03-09 16:55:00,62.2,37.6,30.15,NE,45,0.0,0.0,40,0.00,,CLR,0.00,VWS V14.01,2013-03-09 21:55:00,
2013-03-09 17:00:00,62.2,37.6,30.15,North,0,0.0,0.0,40,0.00,,CLR,0.00,VWS V14.01,2013-03-09 22:00:00,
2013-03-09 17:05:00,62.2,37.6,30.15,ENE,68,2.0,2.0,40,0.00,,CLR,0.00,VWS V14.01,2013-03-09 22:05:00,
2013-03-09 17:10:00,62.2,37.6,30.15,ENE,68,0.0,0.0,40,0.00,,CLR,0.00,VWS V14.01,2013-03-09 22:10:00,
2013-03-09 17:15:00,61.7,37.2,30.15,East,90,1.6,1.6,40,0.00,,CLR,0.00,VWS V14.01,2013-03-09 22:15:00,
2013-03-09 17:20:00,61.5,37.0,30.15,SE,135,0.0,0.0,40,0.00,,CLR,0.00,VWS V14.01,2013-03-09 22:20:00,
2013-03-09 17:25:00,61.7,37.2,30.15,SSW,202,1.1,1.1,40,0.00,,CLR,0.00,VWS V14.01,2013-03-09 22:25:00,
2013-03-09 17:30:00,61.7,37.2,30.15,ESE,112,1.1,1.1,40,0.00,,CLR,0.00,VWS V14.01,2013-03-09 22:30:00,
2013-03-09 17:35:00,61.5,37.0,30.15,SE,135,1.1,1.1,40,0.00,,CLR,0.00,VWS V14.01,2013-03-09 22:35:00,
2013-03-09 17:40:00,61.2,36.7,30.15,SE,135,0.0,0.0,40,0.00,,CLR,0.00,VWS V14.01,2013-03-09 22:40:00,
2013-03-09 17:45:00,60.8,36.3,30.15,East,90,2.7,2.7,40,0.00,,CLR,0.00,VWS V14.01,2013-03-09 22:45:00,
2013-03-09 17:50:00,59.9,36.2,30.15,East,90,2.5,2.5,41,0.00,,CLR,0.00,VWS V14.01,2013-03-09 22:50:00,
2013-03-09 17:55:00,59.7,36.0,30.15,NE,45,1.1,1.1,41,0.00,,CLR,0.00,VWS V14.01,2013-03-09 22:55:00,
2013-03-09 18:01:00,59.5,35.8,30.15,East,90,3.1,3.1,41,0.00,,CLR,0.00,VWS V14.01,2013-03-09 23:01:00,
2013-03-09 18:06:00,59.2,35.5,30.18,East,90,3.1,3.1,41,0.00,,CLR,0.00,VWS V14.01,2013-03-09 23:06:00,
2013-03-09 18:11:00,58.8,35.2,30.18,East,90,3.4,3.4,41,0.00,,CLR,0.00,VWS V14.01,2013-03-09 23:11:00,
2013-03-09 18:16:00,58.5,34.9,30.18,East,90,3.1,3.1,41,0.00,,CLR,0.00,VWS V14.01,2013-03-09 23:16:00,
2013-03-09 18:21:00,58.1,34.5,30.15,East,90,2.5,2.5,41,0.00,,CLR,0.00,VWS V14.01,2013-03-09 23:21:00,
2013-03-09 18:26:00,57.6,34.1,30.15,East,90,2.2,2.2,41,0.00,,CLR,0.00,VWS V14.01,2013-03-09 23:26:00,
2013-03-09 18:31:00,56.8,33.4,30.15,East,90,1.6,1.6,41,0.00,,CLR,0.00,VWS V14.01,2013-03-09 23:31:00,
2013-03-09 18:36:00,56.5,33.1,30.15,East,90,1.3,1.3,41,0.00,,CLR,0.00,VWS V14.01,2013-03-09 23:36:00,
2013-03-09 18:41:00,56.3,32.9,30.15,East,90,1.6,1.6,41,0.00,,CLR,0.00,VWS V14.01,2013-03-09 23:41:00,
2013-03-09 18:46:00,55.9,32.6,30.15,East,90,2.0,2.0,41,0.00,,CLR,0.00,VWS V14.01,2013-03-09 23:46:00,
2013-03-09 18:51:00,55.4,32.1,30.15,East,90,1.3,1.3,41,0.00,,CLR,0.00,VWS V14.01,2013-03-09 23:51:00,
2013-03-09 18:56:00,55.0,32.4,30.15,ENE,68,2.2,2.2,42,0.00,,CLR,0.00,VWS V14.01,2013-03-09 23:56:00,
2013-03-09 19:01:00,54.5,31.9,30.15,ENE,68,1.6,1.6,42,0.00,,CLR,0.00,VWS V14.01,2013-03-10 00:01:00,
2013-03-09 19:06:00,53.6,31.1,30.15,ENE,68,1.1,1.1,42,0.00,,CLR,0.00,VWS V14.01,2013-03-10 00:06:00,
2013-03-09 19:11:00,52.9,30.4,30.15,ENE,68,1.3,1.3,42,0.00,,CLR,0.00,VWS V14.01,2013-03-10 00:11:00,
2013-03-09 19:16:00,52.3,30.0,30.15,ENE,68,1.3,1.3,42,0.00,,CLR,0.00,VWS V14.01,2013-03-10 00:16:00,
2013-03-09 19:21:00,52.2,29.8,30.18,ENE,68,2.5,2.5,42,0.00,,CLR,0.00,VWS V14.01,2013-03-10 00:21:00,
2013-03-09 19:26:00,52.3,30.0,30.18,ENE,68,2.9,2.9,42,0.00,,CLR,0.00,VWS V14.01,2013-03-10 00:26:00,
2013-03-09 19:31:00,52.2,29.8,30.18,ENE,68,3.1,3.1,42,0.00,,CLR,0.00,VWS V14.01,2013-03-10 00:31:00,
2013-03-09 19:36:00,52.0,29.6,30.18,ENE,68,2.7,2.7,42,0.00,,CLR,0.00,VWS V14.01,2013-03-10 00:36:00,
2013-03-09 19:41:00,52.0,29.6,30.18,ENE,68,2.0,2.0,42,0.00,,CLR,0.00,VWS V14.01,2013-03-10 00:41:00,
2013-03-09 19:46:00,52.0,29.6,30.18,ENE,68,2.5,2.5,42,0.00,,CLR,0.00,VWS V14.01,2013-03-10 00:46:00,
2013-03-09 19:51:00,52.2,29.8,30.18,ENE,68,2.9,2.9,42,0.00,,CLR,0.00,VWS V14.01,2013-03-10 00:51:00,
2013-03-09 19:56:00,51.8,29.5,30.18,ENE,68,3.4,3.4,42,0.00,,CLR,0.00,VWS V14.01,2013-03-10 00:56:00,
2013-03-09 20:01:00,51.8,29.5,30.18,ENE,68,2.9,2.9,42,0.00,,CLR,0.00,VWS V14.01,2013-03-10 01:01:00,
2013-03-09 20:06:00,51.8,29.5,30.18,ENE,68,2.5,2.5,42,0.00,,CLR,0.00,VWS V14.01,2013-03-10 01:06:00,
2013-03-09 20:11:00,51.6,29.9,30.18,East,90,2.2,2.2,43,0.00,,CLR,0.00,VWS V14.01,2013-03-10 01:11:00,
2013-03-09 20:16:00,51.3,29.5,30.18,ENE,68,0.0,0.0,43,0.00,,CLR,0.00,VWS V14.01,2013-03-10 01:16:00,
2013-03-09 20:21:00,50.4,28.7,30.18,ENE,68,0.0,0.0,43,0.00,,CLR,0.00,VWS V14.01,2013-03-10 01:21:00,
2013-03-09 20:26:00,50.0,28.4,30.18,ENE,68,0.0,0.0,43,0.00,,CLR,0.00,VWS V14.01,2013-03-10 01:26:00,
2013-03-09 20:31:00,49.6,28.1,30.18,ENE,68,0.0,0.0,43,0.00,,CLR,0.00,VWS V14.01,2013-03-10 01:31:00,
2013-03-09 20:37:00,48.9,27.4,30.18,ENE,68,0.0,0.0,43,0.00,,CLR,0.00,VWS V14.01,2013-03-10 01:37:00,
2013-03-09 20:42:00,48.6,27.1,30.18,ENE,68,0.0,0.0,43,0.00,,CLR,0.00,VWS V14.01,2013-03-10 01:42:00,
2013-03-09 20:47:00,48.2,26.8,30.18,ENE,68,0.0,0.0,43,0.00,,CLR,0.00,VWS V14.01,2013-03-10 01:47:00,
2013-03-09 20:52:00,48.0,26.6,30.18,NE,45,2.9,2.9,43,0.00,,CLR,0.00,VWS V14.01,2013-03-10 01:52:00,
2013-03-09 20:57:00,48.6,27.1,30.18,NE,45,2.2,2.2,43,0.00,,CLR,0.00,VWS V14.01,2013-03-10 01:57:00,
2013-03-09 21:02:00,48.2,26.8,30.18,NE,45,0.0,0.0,43,0.00,,CLR,0.00,VWS V14.01,2013-03-10 02:02:00,
2013-03-09 21:07:00,48.0,26.6,30.18,NE,45,0.0,0.0,43,0.00,,CLR,0.00,VWS V14.01,2013-03-10 02:07:00,
2013-03-09 21:12:00,47.7,26.3,30.18,NE,45,0.0,0.0,43,0.00,,CLR,0.00,VWS V14.01,2013-03-10 02:12:00,
2013-03-09 21:17:00,47.5,26.1,30.18,NE,45,0.0,0.0,43,0.00,,CLR,0.00,VWS V14.01,2013-03-10 02:17:00,
2013-03-09 21:22:00,47.3,26.0,30.18,NE,45,0.0,0.0,43,0.00,,CLR,0.00,VWS V14.01,2013-03-10 02:22:00,
2013-03-09 21:27:00,47.1,25.8,30.18,NE,45,0.0,0.0,43,0.00,,CLR,0.00,VWS V14.01,2013-03-10 02:27:00,
2013-03-09 21:32:00,46.6,25.3,30.18,NE,45,0.0,0.0,43,0.00,,CLR,0.00,VWS V14.01,2013-03-10 02:32:00,
2013-03-09 21:37:00,46.4,25.1,30.18,NE,45,0.0,0.0,43,0.00,,CLR,0.00,VWS V14.01,2013-03-10 02:37:00,
2013-03-09 21:42:00,46.2,25.5,30.18,NE,45,0.0,0.0,44,0.00,,CLR,0.00,VWS V14.01,2013-03-10 02:42:00,
2013-03-09 21:48:00,46.2,25.5,30.18,NE,45,0.0,0.0,44,0.00,,CLR,0.00,VWS V14.01,2013-03-10 02:48:00,
2013-03-09 21:53:00,45.9,25.2,30.21,NE,45,0.0,0.0,44,0.00,,CLR,0.00,VWS V14.01,2013-03-10 02:53:00,
2013-03-09 21:58:00,45.5,24.9,30.21,NE,45,0.0,0.0,44,0.00,,CLR,0.00,VWS V14.01,2013-03-10 02:58:00,
2013-03-09 22:03:00,45.3,24.7,30.21,NE,45,0.0,0.0,44,0.00,,CLR,0.00,VWS V14.01,2013-03-10 03:03:00,
2013-03-09 22:08:00,45.1,24.5,30.21,NE,45,0.0,0.0,44,0.00,,CLR,0.00,VWS V14.01,2013-03-10 03:08:00,
2013-03-09 22:13:00,45.0,24.4,30.21,NE,45,0.0,0.0,44,0.00,,CLR,0.00,VWS V14.01,2013-03-10 03:13:00,
2013-03-09 22:18:00,45.1,24.5,30.21,NE,45,0.0,0.0,44,0.00,,CLR,0.00,VWS V14.01,2013-03-10 03:18:00,
2013-03-09 22:23:00,45.5,24.9,30.21,NE,45,0.0,0.0,44,0.00,,CLR,0.00,VWS V14.01,2013-03-10 03:23:00,
2013-03-09 22:28:00,45.7,25.0,30.21,NE,45,0.0,0.0,44,0.00,,CLR,0.00,VWS V14.01,2013-03-10 03:28:00,
2013-03-09 22:33:00,45.5,24.9,30.21,NE,45,0.0,0.0,44,0.00,,CLR,0.00,VWS V14.01,2013-03-10 03:33:00,
2013-03-09 22:38:00,45.3,24.7,30.18,NE,45,0.0,0.0,44,0.00,,CLR,0.00,VWS V14.01,2013-03-10 03:38:00,
2013-03-09 22:43:00,45.5,24.9,30.18,NE,45,0.0,0.0,44,0.00,,CLR,0.00,VWS V14.01,2013-03-10 03:43:00,
2013-03-09 22:48:00,45.5,24.9,30.18,NE,45,0.0,0.0,44,0.00,,CLR,0.00,VWS V14.01,2013-03-10 03:48:00,
2013-03-09 22:53:00,45.7,25.0,30.18,NE,45,0.0,0.0,44,0.00,,CLR,0.00,VWS V14.01,2013-03-10 03:53:00,
2013-03-09 22:58:00,45.3,24.7,30.18,NE,45,0.0,0.0,44,0.00,,CLR,0.00,VWS V14.01,2013-03-10 03:58:00,
2013-03-09 23:03:00,45.3,24.7,30.18,NE,45,0.0,0.0,44,0.00,,CLR,0.00,VWS V14.01,2013-03-10 04:03:00,
2013-03-09 23:08:00,44.6,24.0,30.18,NE,45,0.0,0.0,44,0.00,,CLR,0.00,VWS V14.01,2013-03-10 04:08:00,
2013-03-09 23:13:00,45.0,24.4,30.18,SSW,202,2.5,2.5,44,0.00,,CLR,0.00,VWS V14.01,2013-03-10 04:13:00,
2013-03-09 23:18:00,45.3,24.7,30.18,SSW,202,0.0,0.0,44,0.00,,CLR,0.00,VWS V14.01,2013-03-10 04:18:00,
2013-03-09 23:23:00,45.0,24.4,30.18,ESE,112,1.6,1.6,44,0.00,,CLR,0.00,VWS V14.01,2013-03-10 04:23:00,
2013-03-09 23:29:00,45.0,24.4,30.18,East,90,1.1,1.1,44,0.00,,CLR,0.00,VWS V14.01,2013-03-10 04:29:00,
2013-03-09 23:34:00,45.3,24.7,30.18,ENE,68,0.9,0.9,44,0.00,,CLR,0.00,VWS V14.01,2013-03-10 04:34:00,
2013-03-09 23:39:00,45.5,24.9,30.21,ENE,68,0.0,0.0,44,0.00,,CLR,0.00,VWS V14.01,2013-03-10 04:39:00,
2013-03-09 23:44:00,45.3,24.7,30.21,ENE,68,0.0,0.0,44,0.00,,CLR,0.00,VWS V14.01,2013-03-10 04:44:00,
2013-03-09 23:49:00,44.8,24.2,30.21,ENE,68,0.0,0.0,44,0.00,,CLR,0.00,VWS V14.01,2013-03-10 04:49:00,
2013-03-09 23:54:00,44.8,24.2,30.21,ENE,68,0.0,0.0,44,0.00,,CLR,0.00,VWS V14.01,2013-03-10 04:54:00,
2013-03-09 23:59:00,45.0,24.4,30.21,ENE,68,0.0,0.0,44,0.00,,CLR,0.00,VWS V14.01,2013-03-10 04:59:00,